sat.trackr.live / text

‹ back to catalog

2025-155P

NORAD 64889 · 2025-155P

PAYLOAD ACTIVE UNKNOWN

§ Identity

Operator
Country
TBD
Launch date
2025-07-25
Launch site
VOSTO
Launch vehicle
Mass (kg)
RCS (m²)

External: N2YO · Heavens-Above · Gunter

§ Orbital elements

Epoch: 2026-05-25T04:38:58.696224Z

Period
94.35 min
Inclination
97.4576°
Eccentricity
0.0005361
Mean motion
15.26267461 rev/d
Perigee alt
483.3 km
Apogee alt
490.7 km
Semi-major
6,865.1 km
B*
1.8034e-4
RAAN
113.0714°
Arg perigee
254.5881°
Mean anomaly
105.4765°
Rev number
7,720

§ Raw data

2025-155P1 64889U 25155P   26145.19373491  .00004601  00000+0  18034-3 0  99972 64889  97.4576 113.0714 0005361 254.5881 105.4765 15.26267461 77204

JSON: /api/v1/satellites/64889 · /tle

For live sub-satellite position, see the globe view (requires WebGL).

§ Visibility from observer

Set your observer location to see the next 7 days of passes ≥ 10°. The values pass through the URL so the page stays shareable.

No JS? Fill the form by hand. The geolocation button needs JavaScript.